^^
Datos históricos de la estación: Murcia-Puente Tocinos
Diario Informe para Marzo 22, 2019 Unidades:  Inglés    Métrico   Ambas
Diario Semanal Mensual Anual Configurable
  Máximo: Mínimo: Media:
Temperatura: 66.6 °F 46.8 °F 56.5 °F
Punto de rocio: 45.5 °F 35.1 °F 39.6 °F
Humedad: 67% 37% 54%
Velocidad viento: 8.1mph 1.8mph 4.5mph
Racha viento: 14.5mph - -
Viento- - South
Presión: 30.3 in 30.2 in -
Precipitación: 0 in    
Historical Graphs
 
 
Tabla de datos para Marzo 22, 2019
Hora Temperatura Punto de rocio Presión Viento Velocidad viento Racha viento Humedad Intensidad lluvia(por hora) Nubes
00:00 50.9 °F 38.5 °F 30.3 in WNW 2 mph 5 mph 62% 0 in CLR
00:05 50.9 °F 39 °F 30.3 in SE 2 mph 5.8 mph 64% 0 in CLR
00:10 50.9 °F 39.6 °F 30.3 in SE 2.9 mph 3.5 mph 65% 0 in CLR
00:15 50.9 °F 39.6 °F 30.3 in SE 2.9 mph 2.9 mph 65% 0 in CLR
00:20 50.7 °F 39.4 °F 30.3 in SE 2 mph 2.3 mph 65% 0 in CLR
00:25 50.7 °F 39.4 °F 30.3 in SE 2 mph 4.6 mph 65% 0 in CLR
00:30 50.9 °F 39.9 °F 30.3 in SE 2 mph 3.1 mph 66% 0 in CLR
00:35 50.9 °F 39.9 °F 30.3 in SSE 2 mph 4.6 mph 66% 0 in CLR
00:40 50.7 °F 39.4 °F 30.3 in WSW 2.4 mph 4.6 mph 65% 0 in CLR
00:45 50.7 °F 39 °F 30.3 in WSW 2.4 mph 3.5 mph 64% 0 in CLR
00:50 50.5 °F 38.5 °F 30.3 in WSW 2.9 mph 4.6 mph 63% 0 in CLR
00:55 50.5 °F 38.5 °F 30.3 in WSW 2.9 mph 4.7 mph 63% 0 in CLR
01:00 50.5 °F 38.5 °F 30.3 in WSW 2 mph 6 mph 63% 0 in CLR
01:05 50.5 °F 38.5 °F 30.3 in WSW 2.9 mph 2.3 mph 63% 0 in CLR
01:10 50.7 °F 38.7 °F 30.3 in SSW 2.4 mph 4.7 mph 63% 0 in CLR
01:15 50.7 °F 38.7 °F 30.3 in SW 2.4 mph 5.8 mph 63% 0 in CLR
01:20 50.5 °F 38.5 °F 30.3 in SSW 4 mph 5.8 mph 63% 0 in CLR
01:25 50.4 °F 38.1 °F 30.3 in SSW 4 mph 5.9 mph 63% 0 in CLR
01:30 50.2 °F 38.1 °F 30.3 in SSW 4 mph 5.8 mph 63% 0 in CLR
01:35 50 °F 37.9 °F 30.3 in SW 4 mph 4.6 mph 63% 0 in CLR
01:40 49.8 °F 37.8 °F 30.3 in SSW 4 mph 5.8 mph 63% 0 in CLR
01:45 49.8 °F 37.8 °F 30.3 in SSW 4 mph 4.6 mph 63% 0 in CLR
01:50 49.6 °F 37.6 °F 30.3 in SSW 4 mph 4.6 mph 63% 0 in CLR
01:55 49.6 °F 37.6 °F 30.3 in WSW 4 mph 4.7 mph 63% 0 in CLR
02:00 49.5 °F 37.4 °F 30.3 in SSW 5 mph 6 mph 63% 0 in CLR
02:05 49.3 °F 36.9 °F 30.3 in SW 4 mph 7.4 mph 62% 0 in CLR
02:10 49.3 °F 36.9 °F 30.3 in SW 4.7 mph 8.1 mph 62% 0 in CLR
02:15 49.3 °F 36.9 °F 30.3 in SW 4.7 mph 8.1 mph 62% 0 in CLR
02:20 49.1 °F 36.7 °F 30.3 in SW 5.4 mph 5.8 mph 62% 0 in CLR
02:25 49.1 °F 37 °F 30.3 in SW 5.4 mph 8.1 mph 63% 0 in CLR
02:30 48.9 °F 36.5 °F 30.3 in SSW 4.7 mph 5.8 mph 62% 0 in CLR
02:35 48.9 °F 36.5 °F 30.3 in SSW 4.7 mph 8.1 mph 62% 0 in CLR
02:40 48.9 °F 36.9 °F 30.3 in SW 4.3 mph 6.9 mph 63% 0 in CLR
02:45 48.6 °F 36.9 °F 30.3 in SSW 4.3 mph 8.1 mph 64% 0 in CLR
02:50 48.6 °F 37.2 °F 30.3 in SW 5.4 mph 8.1 mph 65% 0 in CLR
02:55 48.6 °F 37.2 °F 30.3 in SSW 5.4 mph 6.9 mph 65% 0 in CLR
03:00 48.6 °F 37.2 °F 30.3 in SSW 6 mph 8 mph 65% 0 in CLR
03:05 48.6 °F 36.9 °F 30.3 in SW 5.4 mph 8.1 mph 64% 0 in CLR
03:10 48.6 °F 36.9 °F 30.3 in SSW 5.9 mph 9.2 mph 64% 0 in CLR
03:15 48.6 °F 36.5 °F 30.3 in SSW 5.9 mph 10.4 mph 63% 0 in CLR
03:20 48.6 °F 36.5 °F 30.3 in SW 6.2 mph 9.2 mph 63% 0 in CLR
03:25 48.6 °F 36.1 °F 30.3 in SW 6.2 mph 8.1 mph 62% 0 in CLR
03:30 48.6 °F 35.8 °F 30.3 in SW 5.4 mph 8.1 mph 61% 0 in CLR
03:35 48.6 °F 35.2 °F 30.3 in SW 5.4 mph 6.9 mph 60% 0 in CLR
03:40 48.6 °F 35.2 °F 30.3 in SW 5.4 mph 8.1 mph 60% 0 in CLR
03:45 48.6 °F 35.2 °F 30.3 in SW 5.4 mph 8.1 mph 60% 0 in CLR
03:50 48.4 °F 35.1 °F 30.3 in SW 5.2 mph 5.8 mph 60% 0 in CLR
03:55 48.4 °F 35.1 °F 30.3 in SW 5.2 mph 5.2 mph 60% 0 in CLR
04:00 48.4 °F 35.1 °F 30.3 in SW 5 mph 8 mph 60% 0 in CLR
04:05 48.4 °F 35.4 °F 30.3 in SSW 4 mph 8.1 mph 61% 0 in CLR
04:10 48.4 °F 35.4 °F 30.3 in SW 5.2 mph 6.9 mph 61% 0 in CLR
04:15 48.4 °F 36 °F 30.3 in SSE 5.2 mph 10.4 mph 62% 0 in CLR
04:20 48.4 °F 36 °F 30.3 in SW 5.2 mph 5.8 mph 62% 0 in CLR
04:25 48.6 °F 36.1 °F 30.3 in WSW 5.2 mph 6.9 mph 62% 0 in CLR
04:30 48.6 °F 36.1 °F 30.3 in SW 4.7 mph 9.2 mph 62% 0 in CLR
04:35 48.6 °F 36.1 °F 30.3 in SSW 4.7 mph 10.4 mph 62% 0 in CLR
04:40 48.4 °F 36 °F 30.3 in SW 5.9 mph 9.2 mph 62% 0 in CLR
04:45 48.4 °F 36 °F 30.3 in SSW 5.9 mph 6.9 mph 62% 0 in CLR
04:50 48.4 °F 36.3 °F 30.3 in WSW 5.9 mph 6.9 mph 63% 0 in CLR
04:55 48.4 °F 36.3 °F 30.3 in SSW 5.9 mph 6.9 mph 63% 0 in CLR
05:00 48.4 °F 36.3 °F 30.3 in SW 5 mph 9 mph 63% 0 in CLR
05:05 48.4 °F 36.3 °F 30.3 in SW 4.7 mph 6.9 mph 63% 0 in CLR
05:10 48.4 °F 36.3 °F 30.3 in WSW 5.4 mph 6.9 mph 63% 0 in CLR
05:15 48.4 °F 36.3 °F 30.3 in SW 5.4 mph 8.1 mph 63% 0 in CLR
05:20 48.2 °F 36.1 °F 30.3 in WSW 4.7 mph 7.4 mph 63% 0 in CLR
05:25 48.2 °F 36.7 °F 30.3 in WSW 4.7 mph 8.1 mph 64% 0 in CLR
05:30 48 °F 36.3 °F 30.3 in WSW 4.7 mph 5.9 mph 64% 0 in CLR
05:35 48 °F 36.3 °F 30.3 in SSW 4.7 mph 5.4 mph 64% 0 in CLR
05:40 47.8 °F 36.1 °F 30.3 in WSW 4 mph 4.7 mph 64% 0 in CLR
05:45 47.8 °F 36.1 °F 30.3 in SSW 4 mph 4.6 mph 64% 0 in CLR
05:50 47.7 °F 36.5 °F 30.3 in SW 3.6 mph 6.9 mph 65% 0 in CLR
05:55 47.5 °F 36.3 °F 30.3 in SW 3.6 mph 4.7 mph 65% 0 in CLR
06:00 47.3 °F 36.1 °F 30.3 in WSW 5 mph 8 mph 65% 0 in CLR
06:05 47.1 °F 36.3 °F 30.3 in WSW 4 mph 5.8 mph 66% 0 in CLR
06:10 46.9 °F 36.1 °F 30.3 in SW 4.3 mph 5.8 mph 66% 0 in CLR
06:15 46.8 °F 36 °F 30.3 in SW 4.3 mph 5.8 mph 66% 0 in CLR
06:20 46.9 °F 36.1 °F 30.3 in SW 4.7 mph 7.6 mph 66% 0 in CLR
06:25 46.9 °F 36.1 °F 30.3 in SSW 4.7 mph 9.2 mph 66% 0 in CLR
06:30 47.1 °F 36.3 °F 30.3 in SSW 5.2 mph 8.1 mph 66% 0 in CLR
06:35 47.3 °F 36.1 °F 30.3 in SW 5.2 mph 5.8 mph 65% 0 in CLR
06:40 47.5 °F 36.3 °F 30.3 in SW 4.7 mph 5.8 mph 65% 0 in CLR
06:45 47.5 °F 36.3 °F 30.3 in SSW 4.7 mph 6.9 mph 65% 0 in CLR
06:50 47.5 °F 36.3 °F 30.3 in West 4 mph 5.8 mph 65% 0 in CLR
06:55 47.5 °F 36.3 °F 30.3 in WSW 4 mph 4.7 mph 65% 0 in CLR
07:00 47.1 °F 36 °F 30.3 in WSW 3 mph 7 mph 65% 0 in CLR
07:05 46.9 °F 36.1 °F 30.3 in West 3.6 mph 4.7 mph 66% 0 in CLR
07:10 46.8 °F 36 °F 30.3 in West 3.1 mph 3.5 mph 66% 0 in CLR
07:15 46.8 °F 36.3 °F 30.3 in SW 3.1 mph 5.8 mph 67% 0 in CLR
07:20 46.9 °F 36.5 °F 30.3 in SW 3.6 mph 6.9 mph 67% 0 in CLR
07:25 47.1 °F 36.3 °F 30.3 in SSW 3.6 mph 8.1 mph 66% 0 in CLR
07:30 47.3 °F 36.5 °F 30.3 in SW 5.2 mph 8.1 mph 66% 0 in CLR
07:35 47.5 °F 36.7 °F 30.3 in SW 5.2 mph 8.1 mph 66% 0 in CLR
07:40 47.5 °F 36.7 °F 30.3 in South 5.2 mph 6.9 mph 66% 0 in CLR
07:45 47.7 °F 36.9 °F 30.3 in SW 5.2 mph 8.1 mph 66% 0 in CLR
07:50 47.7 °F 36.5 °F 30.3 in SW 4 mph 4.6 mph 65% 0 in CLR
07:55 47.8 °F 36.7 °F 30.3 in SSE 4 mph 4.6 mph 65% 0 in CLR
08:00 48 °F 36.9 °F 30.3 in South 2 mph 6 mph 65% 0 in CLR
08:05 48.2 °F 36.7 °F 30.3 in SSW 2.9 mph 6.4 mph 64% 0 in CLR
08:10 48.6 °F 36.9 °F 30.3 in SSW 4 mph 7.4 mph 64% 0 in CLR
08:15 48.7 °F 36.7 °F 30.3 in SSE 4 mph 5.8 mph 63% 0 in CLR
08:20 48.9 °F 36.9 °F 30.3 in SW 5.2 mph 8.1 mph 63% 0 in CLR
08:25 49.5 °F 37 °F 30.3 in SSW 5.2 mph 8.1 mph 62% 0 in CLR
08:30 49.6 °F 37 °F 30.3 in WSW 5.2 mph 5.8 mph 62% 0 in CLR
08:35 50 °F 37 °F 30.3 in SSW 5.2 mph 9.2 mph 61% 0 in CLR
08:40 50 °F 36.7 °F 30.3 in SSW 4.3 mph 9.2 mph 60% 0 in CLR
08:45 50.2 °F 36.9 °F 30.3 in South 4.3 mph 6.4 mph 60% 0 in CLR
08:50 50.4 °F 37 °F 30.3 in SSW 5.9 mph 10.4 mph 60% 0 in CLR
08:55 50.7 °F 36.9 °F 30.3 in WSW 5.9 mph 10.4 mph 59% 0 in CLR
09:00 50.7 °F 37 °F 30.3 in SSW 6 mph 9 mph 59% 0 in CLR
09:05 51.3 °F 37.4 °F 30.3 in SW 5.4 mph 10.4 mph 59% 0 in CLR
09:10 51.3 °F 37 °F 30.3 in SW 5.9 mph 10.4 mph 58% 0 in CLR
09:15 51.3 °F 37.4 °F 30.3 in West 5.9 mph 10.4 mph 59% 0 in CLR
09:20 51.6 °F 37.2 °F 30.3 in SW 5.4 mph 11.5 mph 58% 0 in CLR
09:25 52 °F 37.8 °F 30.3 in WSW 5.4 mph 8.1 mph 58% 0 in CLR
09:30 52.2 °F 37.8 °F 30.3 in WSW 6.2 mph 9.2 mph 58% 0 in CLR
09:35 52.5 °F 37.8 °F 30.3 in West 6.2 mph 9.2 mph 57% 0 in CLR
09:40 52.9 °F 38.1 °F 30.3 in SW 5.4 mph 8.7 mph 57% 0 in CLR
09:45 53.1 °F 38.1 °F 30.3 in SSW 5.4 mph 8.1 mph 57% 0 in CLR
09:50 53.2 °F 37.9 °F 30.3 in SW 5.4 mph 7.4 mph 56% 0 in CLR
09:55 53.4 °F 38.1 °F 30.3 in West 5.4 mph 8.1 mph 56% 0 in CLR
10:00 53.8 °F 38.5 °F 30.3 in SW 5 mph 12 mph 56% 0 in CLR
10:05 54 °F 38.1 °F 30.3 in WSW 4.7 mph 9.2 mph 55% 0 in CLR
10:10 54.1 °F 38.8 °F 30.3 in South 5.4 mph 6.9 mph 56% 0 in CLR
10:15 54.1 °F 38.3 °F 30.3 in West 5.4 mph 5.8 mph 55% 0 in CLR
10:20 54.5 °F 38.7 °F 30.3 in SW 5.4 mph 8.1 mph 55% 0 in CLR
10:25 55 °F 38.7 °F 30.3 in SW 5.4 mph 9.2 mph 54% 0 in CLR
10:30 55.2 °F 38.5 °F 30.3 in SW 5.4 mph 9.2 mph 53% 0 in CLR
10:35 55.6 °F 38.7 °F 30.3 in West 5.4 mph 9.2 mph 53% 0 in CLR
10:40 55.8 °F 38.8 °F 30.3 in WSW 5.4 mph 9.2 mph 53% 0 in CLR
10:45 55.8 °F 38.8 °F 30.3 in South 5.4 mph 5.9 mph 53% 0 in CLR
10:50 56.1 °F 38.7 °F 30.3 in SSW 5.4 mph 8.5 mph 52% 0 in CLR
10:55 56.7 °F 39.2 °F 30.3 in WSW 5.4 mph 8.1 mph 52% 0 in CLR
11:00 56.8 °F 38.8 °F 30.3 in SW 5 mph 10 mph 51% 0 in CLR
11:05 57 °F 39 °F 30.3 in SW 5.2 mph 10.4 mph 51% 0 in CLR
11:10 57 °F 39 °F 30.3 in WSW 5.9 mph 8.1 mph 51% 0 in CLR
11:15 57.4 °F 38.8 °F 30.3 in West 5.9 mph 4.6 mph 50% 0 in CLR
11:20 57.7 °F 39.2 °F 30.3 in WSW 3.6 mph 6.4 mph 50% 0 in CLR
11:25 57.9 °F 38.8 °F 30.3 in WSW 3.6 mph 8.1 mph 49% 0 in CLR
11:30 57.9 °F 38.8 °F 30.3 in WNW 4.7 mph 10.4 mph 49% 0 in CLR
11:35 58.1 °F 38.5 °F 30.3 in WNW 4.7 mph 6.4 mph 48% 0 in CLR
11:40 58.5 °F 38.8 °F 30.3 in SSW 5.2 mph 8.1 mph 48% 0 in CLR
11:45 58.8 °F 38.7 °F 30.3 in WSW 5.2 mph 11.5 mph 47% 0 in CLR
11:50 59.2 °F 38.5 °F 30.3 in SSW 6.2 mph 6.9 mph 46% 0 in CLR
11:55 59.7 °F 38.3 °F 30.3 in SSW 6.2 mph 9.2 mph 45% 0 in CLR
12:00 60.1 °F 38.1 °F 30.3 in WSW 6 mph 12 mph 44% 0 in CLR
12:05 60.3 °F 38.8 °F 30.3 in SW 5.9 mph 8.5 mph 45% 0 in CLR
12:10 60.4 °F 38.5 °F 30.3 in SSW 5.4 mph 4.6 mph 44% 0 in CLR
12:15 60.6 °F 38.7 °F 30.3 in WSW 5.4 mph 8.7 mph 44% 0 in CLR
12:20 61 °F 38.8 °F 30.3 in SSE 5.2 mph 8.1 mph 44% 0 in CLR
12:25 61.2 °F 38.5 °F 30.3 in SW 5.2 mph 4.7 mph 43% 0 in CLR
12:30 61.5 °F 38.8 °F 30.3 in South 4.3 mph 8.1 mph 43% 0 in CLR
12:35 61.9 °F 38.5 °F 30.3 in WSW 4.3 mph 4.6 mph 42% 0 in CLR
12:40 62.2 °F 38.8 °F 30.3 in SSW 4.3 mph 8.1 mph 42% 0 in CLR
12:45 62.6 °F 38.7 °F 30.3 in SSW 4.3 mph 3.5 mph 41% 0 in CLR
12:50 63 °F 38.1 °F 30.2 in West 4.7 mph 8.1 mph 40% 0 in CLR
12:55 62.8 °F 38.7 °F 30.2 in South 4.7 mph 5.8 mph 41% 0 in CLR
13:00 63 °F 38.1 °F 30.2 in SW 5 mph 9 mph 40% 0 in CLR
13:05 63.1 °F 38.5 °F 30.2 in SSE 4.7 mph 5.8 mph 40% 0 in CLR
13:10 63.5 °F 38.1 °F 30.2 in WSW 4 mph 9.2 mph 39% 0 in CLR
13:15 63.5 °F 38.7 °F 30.2 in South 4 mph 5.8 mph 40% 0 in CLR
13:20 63.7 °F 38.1 °F 30.2 in West 4.7 mph 5.8 mph 39% 0 in CLR
13:25 64 °F 38.7 °F 30.2 in NW 4.7 mph 5.8 mph 39% 0 in CLR
13:30 64.4 °F 38.8 °F 30.2 in NE 3.6 mph 4.6 mph 39% 0 in CLR
13:35 64.9 °F 38.7 °F 30.2 in NE 3.6 mph 4.6 mph 38% 0 in CLR
13:40 65.3 °F 39 °F 30.2 in ESE 2.4 mph 6.9 mph 38% 0 in CLR
13:45 65.5 °F 38.5 °F 30.2 in NE 2.4 mph 8.1 mph 37% 0 in CLR
13:50 65.1 °F 38.8 °F 30.2 in NE 4.3 mph 3.5 mph 38% 0 in CLR
13:55 64.9 °F 37.9 °F 30.2 in ENE 4.3 mph 9.2 mph 37% 0 in CLR
14:00 64.9 °F 38.7 °F 30.2 in East 5 mph 9 mph 38% 0 in CLR
14:05 65.5 °F 39.2 °F 30.2 in East 4.7 mph 5.8 mph 38% 0 in CLR
14:10 65.7 °F 39.4 °F 30.2 in North 3.6 mph 9.2 mph 38% 0 in CLR
14:15 65.5 °F 39.2 °F 30.2 in NNE 3.6 mph 13 mph 38% 0 in CLR
14:20 65.3 °F 39 °F 30.2 in NE 5.2 mph 10.4 mph 38% 0 in CLR
14:25 65.1 °F 38.8 °F 30.2 in SSW 5.2 mph 9.2 mph 38% 0 in CLR
14:30 65.1 °F 38.8 °F 30.2 in NNW 5.4 mph 6.9 mph 38% 0 in CLR
14:35 65.5 °F 39.2 °F 30.2 in ESE 5.4 mph 10 mph 38% 0 in CLR
14:40 65.7 °F 39.4 °F 30.2 in ESE 4.7 mph 3.5 mph 38% 0 in CLR
14:45 66.2 °F 39 °F 30.2 in ENE 4.7 mph 9.2 mph 37% 0 in CLR
14:50 66.4 °F 39.4 °F 30.2 in NE 4 mph 5.8 mph 37% 0 in CLR
14:55 66 °F 39 °F 30.2 in NE 4 mph 13 mph 37% 0 in CLR
15:00 66 °F 39 °F 30.2 in NNE 6 mph 13 mph 37% 0 in CLR
15:05 66.2 °F 39 °F 30.2 in North 6.2 mph 4.7 mph 37% 0 in CLR
15:10 66.4 °F 39.9 °F 30.2 in ENE 4.3 mph 11.5 mph 38% 0 in CLR
15:15 66.4 °F 39.9 °F 30.2 in ENE 4.3 mph 11.5 mph 38% 0 in CLR
15:20 66.6 °F 40.1 °F 30.2 in East 7.4 mph 11.5 mph 38% 0 in CLR
15:25 66.6 °F 40.1 °F 30.2 in ENE 7.4 mph 9.2 mph 38% 0 in CLR
15:30 66.4 °F 40.6 °F 30.2 in NE 6.4 mph 11.5 mph 39% 0 in CLR
15:35 66.6 °F 40.1 °F 30.2 in ENE 6.4 mph 11.4 mph 38% 0 in CLR
15:40 66.4 °F 40.6 °F 30.2 in NE 7.6 mph 9.2 mph 39% 0 in CLR
15:45 66.6 °F 40.1 °F 30.2 in ENE 7.6 mph 14.5 mph 38% 0 in CLR
15:50 66.4 °F 40.6 °F 30.2 in ENE 6.9 mph 13.8 mph 39% 0 in CLR
15:55 66.4 °F 40.6 °F 30.2 in ESE 6.9 mph 9.7 mph 39% 0 in CLR
16:00 66 °F 40.3 °F 30.2 in East 7 mph 14 mph 39% 0 in CLR
16:05 66 °F 40.3 °F 30.2 in ESE 7.4 mph 11.5 mph 39% 0 in CLR
16:10 66 °F 41 °F 30.2 in ENE 6.4 mph 13.8 mph 40% 0 in CLR
16:15 66.2 °F 41.2 °F 30.2 in SE 6.4 mph 12.7 mph 40% 0 in CLR
16:20 66.2 °F 40.5 °F 30.2 in East 7.6 mph 6.9 mph 39% 0 in CLR
16:25 65.8 °F 40.3 °F 30.2 in NE 7.6 mph 13.8 mph 39% 0 in CLR
16:30 65.7 °F 40.6 °F 30.2 in NE 8.1 mph 10.4 mph 40% 0 in CLR
16:35 65.7 °F 41.4 °F 30.2 in ENE 8.1 mph 8.1 mph 41% 0 in CLR
16:40 65.7 °F 41.4 °F 30.2 in ENE 6.4 mph 10.7 mph 41% 0 in CLR
16:45 65.5 °F 41.7 °F 30.2 in NE 6.4 mph 9.2 mph 42% 0 in CLR
16:50 65.5 °F 41.7 °F 30.2 in ESE 7.4 mph 8.1 mph 42% 0 in CLR
16:55 65.1 °F 41.4 °F 30.2 in ENE 7.4 mph 6.9 mph 42% 0 in CLR
17:00 64.9 °F 40.6 °F 30.2 in NE 6 mph 11 mph 41% 0 in CLR
17:05 64.8 °F 41.2 °F 30.2 in ENE 5.9 mph 10.4 mph 42% 0 in CLR
17:10 64.9 °F 41.9 °F 30.2 in ENE 6.4 mph 4.6 mph 43% 0 in CLR
17:15 65.3 °F 41.5 °F 30.2 in NE 6.4 mph 5.8 mph 42% 0 in CLR
17:20 65.3 °F 41.5 °F 30.2 in ESE 3.6 mph 4.6 mph 42% 0 in CLR
17:25 65.5 °F 41.7 °F 30.2 in NE 3.6 mph 5.8 mph 42% 0 in CLR
17:30 65.1 °F 41.4 °F 30.2 in ENE 4.7 mph 8.1 mph 42% 0 in CLR
17:35 65.1 °F 41.4 °F 30.2 in ENE 4.7 mph 7.4 mph 42% 0 in CLR
17:40 65.3 °F 41.5 °F 30.2 in NE 4.7 mph 4.6 mph 42% 0 in CLR
17:45 65.3 °F 41.5 °F 30.2 in NE 4.7 mph 8.1 mph 42% 0 in CLR
17:50 65.1 °F 40.8 °F 30.2 in NE 5.2 mph 11.5 mph 41% 0 in CLR
17:55 64.9 °F 41.4 °F 30.2 in ENE 5.2 mph 9.2 mph 42% 0 in CLR
18:00 64.9 °F 41.4 °F 30.2 in NE 6 mph 9 mph 42% 0 in CLR
18:05 64.9 °F 41.4 °F 30.2 in NE 6.2 mph 11.4 mph 42% 0 in CLR
18:10 64.9 °F 41.4 °F 30.2 in East 5.4 mph 6.9 mph 42% 0 in CLR
18:15 64.8 °F 41.2 °F 30.2 in ENE 5.4 mph 10.4 mph 42% 0 in CLR
18:20 64.8 °F 41.7 °F 30.2 in East 5.4 mph 6.9 mph 43% 0 in CLR
18:25 64.6 °F 41.5 °F 30.2 in SE 5.4 mph 10.4 mph 43% 0 in CLR
18:30 64.4 °F 42.1 °F 30.2 in ENE 5.4 mph 8.1 mph 44% 0 in CLR
18:35 64.2 °F 41.7 °F 30.2 in East 5.4 mph 11.5 mph 44% 0 in CLR
18:40 64 °F 42.3 °F 30.2 in East 6.2 mph 6.9 mph 45% 0 in CLR
18:45 64 °F 42.3 °F 30.2 in ENE 6.2 mph 9.2 mph 45% 0 in CLR
18:50 63.9 °F 42.6 °F 30.2 in East 4.3 mph 9.2 mph 46% 0 in CLR
18:55 63.7 °F 42.4 °F 30.2 in SE 4.3 mph 9.2 mph 46% 0 in CLR
19:00 63.7 °F 43.2 °F 30.2 in East 6 mph 8 mph 47% 0 in CLR
19:05 63.5 °F 43 °F 30.2 in ENE 5.4 mph 4.6 mph 47% 0 in CLR
19:10 63.5 °F 43 °F 30.2 in NE 3.1 mph 4.7 mph 47% 0 in CLR
19:15 63.3 °F 43.3 °F 30.2 in ENE 3.1 mph 5.9 mph 48% 0 in CLR
19:20 63.3 °F 43.3 °F 30.2 in East 3.1 mph 6.9 mph 48% 0 in CLR
19:25 63 °F 43.5 °F 30.2 in ENE 3.1 mph 9.2 mph 49% 0 in CLR
19:30 62.8 °F 43.9 °F 30.2 in NE 5.4 mph 5.8 mph 50% 0 in CLR
19:35 62.6 °F 44.2 °F 30.2 in East 5.4 mph 9.2 mph 51% 0 in CLR
19:40 62.2 °F 43.9 °F 30.2 in East 5.2 mph 6.9 mph 51% 0 in CLR
19:45 62.1 °F 43.7 °F 30.2 in East 5.2 mph 5.2 mph 51% 0 in CLR
19:50 61.9 °F 43.5 °F 30.2 in East 3.6 mph 2.4 mph 51% 0 in CLR
19:55 61.9 °F 43.5 °F 30.2 in ENE 3.6 mph 3.5 mph 51% 0 in CLR
20:00 61.5 °F 43.2 °F 30.2 in ENE 2 mph 5 mph 51% 0 in CLR
20:05 61.5 °F 43.7 °F 30.2 in ENE 1.8 mph 4.6 mph 52% 0 in CLR
20:10 61.3 °F 43.5 °F 30.2 in ENE 2.9 mph 4.6 mph 52% 0 in CLR
20:15 61.2 °F 43.9 °F 30.2 in East 2.9 mph 3.5 mph 53% 0 in CLR
20:20 61.2 °F 43.9 °F 30.2 in East 2.9 mph 3.5 mph 53% 0 in CLR
20:25 61.2 °F 43.9 °F 30.2 in East 2.9 mph 3.5 mph 53% 0 in CLR
20:30 61.2 °F 43.9 °F 30.2 in ENE 2.4 mph 4.6 mph 53% 0 in CLR
20:35 61 °F 44.2 °F 30.2 in NE 2.4 mph 4.6 mph 54% 0 in CLR
20:40 61 °F 44.2 °F 30.2 in ENE 2.9 mph 4.6 mph 54% 0 in CLR
20:45 60.6 °F 44.4 °F 30.2 in NE 2.9 mph 4.6 mph 55% 0 in CLR
20:50 60.6 °F 44.8 °F 30.2 in ENE 2.9 mph 4.6 mph 56% 0 in CLR
20:55 60.4 °F 44.8 °F 30.2 in ENE 2.9 mph 2.9 mph 56% 0 in CLR
21:00 60.4 °F 44.8 °F 30.2 in NE 2 mph 5 mph 56% 0 in CLR
21:05 60.3 °F 45 °F 30.2 in NE 2 mph 5.8 mph 57% 0 in CLR
21:10 60.1 °F 45.1 °F 30.2 in NE 3.1 mph 5.8 mph 58% 0 in CLR
21:15 59.7 °F 45 °F 30.2 in NNE 3.1 mph 4.6 mph 58% 0 in CLR
21:20 59.7 °F 45.3 °F 30.3 in NNE 3.1 mph 2.4 mph 59% 0 in CLR
21:25 59.5 °F 45.1 °F 30.3 in NNE 3.1 mph 2.9 mph 59% 0 in CLR
21:30 59.4 °F 45 °F 30.3 in NE 1.8 mph 3.5 mph 59% 0 in CLR
21:35 59.2 °F 45.3 °F 30.3 in NE 1.8 mph 2.4 mph 60% 0 in CLR
21:40 59.2 °F 45.3 °F 30.3 in NE 1.8 mph 2.9 mph 60% 0 in CLR
21:45 58.8 °F 45.3 °F 30.3 in NE 1.8 mph 4.6 mph 61% 0 in CLR
21:50 58.8 °F 45.3 °F 30.3 in NE 2.9 mph 4.6 mph 61% 0 in CLR
21:55 58.6 °F 45.1 °F 30.3 in NE 2.9 mph 3.5 mph 61% 0 in CLR
22:00 58.6 °F 45.1 °F 30.3 in NE 2 mph 4 mph 61% 0 in CLR
22:05 58.6 °F 45.1 °F 30.3 in NW 2 mph 3.6 mph 61% 0 in CLR
22:10 58.5 °F 45.1 °F 30.3 in NW 2 mph 4.6 mph 61% 0 in CLR
22:15 58.5 °F 45.1 °F 30.3 in NNW 2 mph 4.6 mph 61% 0 in CLR
22:20 58.5 °F 45.1 °F 30.3 in NW 2.4 mph 3.5 mph 61% 0 in CLR
22:25 58.5 °F 45.1 °F 30.3 in NW 2.4 mph 4.6 mph 61% 0 in CLR
22:30 58.5 °F 45.1 °F 30.3 in NW 2.9 mph 3.5 mph 61% 0 in CLR
22:35 58.5 °F 45.1 °F 30.3 in NW 2.9 mph 4.6 mph 61% 0 in CLR
22:40 58.5 °F 45.1 °F 30.3 in NW 2.4 mph 3.5 mph 61% 0 in CLR
22:45 58.3 °F 45.3 °F 30.3 in NW 2.4 mph 4.6 mph 62% 0 in CLR
22:50 58.3 °F 45.3 °F 30.3 in WNW 3.1 mph 4.6 mph 62% 0 in CLR
22:55 58.3 °F 45.3 °F 30.3 in WNW 3.1 mph 4.6 mph 62% 0 in CLR
23:00 58.3 °F 45.3 °F 30.3 in WNW 2 mph 5 mph 62% 0 in CLR
23:05 58.3 °F 45.3 °F 30.3 in WNW 2.9 mph 3.6 mph 62% 0 in CLR
23:10 58.3 °F 45.3 °F 30.3 in WNW 2.4 mph 2.3 mph 62% 0 in CLR
23:15 58.5 °F 45.1 °F 30.3 in NW 2.4 mph 3.5 mph 61% 0 in CLR
23:20 58.5 °F 45.1 °F 30.3 in West 2 mph 4.6 mph 61% 0 in CLR
23:25 58.5 °F 45.5 °F 30.3 in WSW 2 mph 4.6 mph 62% 0 in CLR
23:30 58.5 °F 45.1 °F 30.3 in SW 2.4 mph 3.5 mph 61% 0 in CLR
23:35 58.6 °F 45.1 °F 30.2 in SSW 2.4 mph 4.6 mph 61% 0 in CLR
23:40 58.6 °F 45.1 °F 30.2 in SSW 3.1 mph 3.5 mph 61% 0 in CLR
23:45 58.6 °F 45.1 °F 30.2 in SSW 3.1 mph 3.5 mph 61% 0 in CLR
23:50 58.8 °F 45.3 °F 30.2 in SSW 2.4 mph 4.6 mph 61% 0 in CLR
23:55 58.8 °F 45.3 °F 30.2 in SSW 2.4 mph 2.4 mph 61% 0 in CLR
Murcia-Puente Tocinos, España
Compliments of Weather Underground - 2.75 mb

La estación de MeteoMurcia.com, publica sus datos en los siguientes proyectos:

Weather Underground PWS IMURCIAP2 Meteoclimatic www.awekas.at

W3Counter
Web Analytics